EN

Hourly Weather Labazy

Today, 28 July, Wednesday

Time Temperature Precipitation Wind Pressure Humidity
00:00 +19°C° 0 mm 2 mps 754 mmHg 56%
01:00 +18°C° 0 mm 2 mps 754 mmHg 62%
02:00 +17°C° 0 mm 2 mps 754 mmHg 68%
03:00 +16°C° 0 mm 2 mps 754 mmHg 76%
04:00 +18°C° 0 mm 2 mps 754 mmHg 72%
05:00 +19°C° 0 mm 2 mps 754 mmHg 69%
06:00 +20°C° 0 mm 3 mps 754 mmHg 65%
07:00 +22°C° 0 mm 3 mps 754 mmHg 56%
08:00 +25°C° 0 mm 4 mps 754 mmHg 47%
09:00 +26°C° 0 mm 5 mps 754 mmHg 38%
10:00 +26°C° 0 mm 5 mps 754 mmHg 35%
11:00 +27°C° 0 mm 6 mps 754 mmHg 32%
12:00 +27°C° 0 mm 6 mps 753 mmHg 28%
13:00 +28°C° 0 mm 6 mps 753 mmHg 28%
14:00 +28°C° 0 mm 5 mps 753 mmHg 27%
15:00 +28°C° 0 mm 5 mps 753 mmHg 25%
16:00 +27°C° 0 mm 5 mps 753 mmHg 27%
17:00 +27°C° 0 mm 4 mps 753 mmHg 28%
18:00 +26°C° 0 mm 3 mps 753 mmHg 30%
19:00 +24°C° 0 mm 3 mps 753 mmHg 34%
20:00 +21°C° 0 mm 2 mps 754 mmHg 38%
21:00 +19°C° 0 mm 1 mps 754 mmHg 42%
22:00 +19°C° 0 mm 1 mps 754 mmHg 43%
23:00 +16°C° 0 mm 0 mps 754 mmHg 44%

Tomorrow, 29 July, Thursday

Time Temperature Precipitation Wind Pressure Humidity
00:00 +15°C° 0 mm 0 mps 754 mmHg 45%
01:00 +15°C° 0 mm 0 mps 754 mmHg 46%
02:00 +16°C° 0 mm 1 mps 754 mmHg 46%
03:00 +15°C° 0 mm 1 mps 754 mmHg 47%
04:00 +16°C° 0 mm 1 mps 754 mmHg 45%
05:00 +19°C° 0 mm 1 mps 754 mmHg 42%
06:00 +20°C° 0 mm 1 mps 754 mmHg 40%
07:00 +21°C° 0 mm 2 mps 754 mmHg 37%
08:00 +24°C° 0 mm 2 mps 754 mmHg 34%
09:00 +26°C° 0 mm 3 mps 754 mmHg 31%
10:00 +28°C° 0 mm 3 mps 753 mmHg 30%
11:00 +29°C° 0 mm 3 mps 753 mmHg 29%
12:00 +30°C° 0 mm 4 mps 752 mmHg 28%
13:00 +28°C° 0.1 mm 4 mps 753 mmHg 42%
14:00 +25°C° 0.1 mm 4 mps 753 mmHg 56%
15:00 +21°C° 0.1 mm 4 mps 753 mmHg 71%
16:00 +21°C° 0.1 mm 4 mps 752 mmHg 72%
17:00 +21°C° 0.1 mm 3 mps 752 mmHg 73%
18:00 +20°C° 0.1 mm 2 mps 752 mmHg 75%
19:00 +20°C° 0 mm 2 mps 751 mmHg 73%
20:00 +20°C° 0 mm 3 mps 751 mmHg 72%
21:00 +20°C° 0 mm 3 mps 751 mmHg 70%
22:00 +20°C° 0.1 mm 3 mps 751 mmHg 72%
23:00 +20°C° 0.1 mm 3 mps 750 mmHg 73%

Day after tomorrow, 30 July, Friday

Time Temperature Precipitation Wind Pressure Humidity
00:00 +19°C° 0.1 mm 3 mps 750 mmHg 75%
01:00 +19°C° 0 mm 3 mps 750 mmHg 73%
02:00 +20°C° 0 mm 4 mps 750 mmHg 70%
03:00 +20°C° 0 mm 4 mps 749 mmHg 68%
04:00 +21°C° 0 mm 4 mps 749 mmHg 66%
05:00 +21°C° 0 mm 4 mps 749 mmHg 64%
06:00 +22°C° 0 mm 4 mps 749 mmHg 62%
07:00 +25°C° 0 mm 4 mps 749 mmHg 56%
08:00 +28°C° 0 mm 5 mps 749 mmHg 51%
09:00 +30°C° 0 mm 5 mps 749 mmHg 45%
10:00 +32°C° 0 mm 6 mps 749 mmHg 41%
11:00 +33°C° 0 mm 6 mps 749 mmHg 37%
12:00 +35°C° 0 mm 7 mps 749 mmHg 33%
13:00 +34°C° 0 mm 6 mps 749 mmHg 34%
14:00 +33°C° 0 mm 5 mps 749 mmHg 35%
15:00 +33°C° 0 mm 5 mps 749 mmHg 36%
16:00 +33°C° 0 mm 4 mps 749 mmHg 37%
17:00 +33°C° 0 mm 4 mps 749 mmHg 37%
18:00 +32°C° 0 mm 4 mps 749 mmHg 38%
19:00 +29°C° 0 mm 2 mps 749 mmHg 43%
20:00 +27°C° 0 mm 1 mps 749 mmHg 48%
21:00 +24°C° 0 mm 0 mps 749 mmHg 53%
22:00 +25°C° 0 mm 1 mps 749 mmHg 55%
23:00 +25°C° 0 mm 1 mps 749 mmHg 56%

31 July, Saturday

Time Temperature Precipitation Wind Pressure Humidity
00:00 +24°C° 0 mm 2 mps 750 mmHg 57%
01:00 +24°C° 0 mm 2 mps 749 mmHg 59%
02:00 +24°C° 0 mm 2 mps 749 mmHg 61%
03:00 +23°C° 0 mm 2 mps 749 mmHg 62%
04:00 +24°C° 0 mm 2 mps 749 mmHg 59%
05:00 +25°C° 0 mm 2 mps 749 mmHg 56%
06:00 +27°C° 0 mm 3 mps 750 mmHg 53%
07:00 +29°C° 0 mm 4 mps 749 mmHg 48%
08:00 +32°C° 0 mm 5 mps 749 mmHg 42%
09:00 +34°C° 0 mm 6 mps 749 mmHg 37%
10:00 +35°C° 0 mm 6 mps 749 mmHg 35%
11:00 +35°C° 0 mm 6 mps 749 mmHg 32%
12:00 +36°C° 0 mm 5 mps 749 mmHg 30%
13:00 +36°C° 0 mm 5 mps 749 mmHg 29%
14:00 +36°C° 0 mm 5 mps 749 mmHg 29%
15:00 +36°C° 0 mm 4 mps 748 mmHg 28%
16:00 +34°C° 0 mm 4 mps 749 mmHg 33%
17:00 +33°C° 0 mm 4 mps 749 mmHg 39%
18:00 +30°C° 0 mm 4 mps 749 mmHg 44%
19:00 +28°C° 0.3 mm 4 mps 750 mmHg 54%
20:00 +26°C° 0.3 mm 3 mps 750 mmHg 65%
21:00 +24°C° 0.3 mm 2 mps 750 mmHg 75%
22:00 +23°C° 0.6 mm 2 mps 751 mmHg 79%
23:00 +21°C° 0.6 mm 2 mps 751 mmHg 83%

1 August, Sunday

Time Temperature Precipitation Wind Pressure Humidity
00:00 +21°C° 0.6 mm 2 mps 751 mmHg 87%
01:00 +20°C° 0 mm 2 mps 751 mmHg 87%
02:00 +21°C° 0 mm 1 mps 751 mmHg 87%
03:00 +21°C° 0 mm 1 mps 751 mmHg 87%
04:00 +22°C° 0 mm 1 mps 752 mmHg 83%
05:00 +23°C° 0 mm 1 mps 752 mmHg 80%
06:00 +24°C° 0 mm 2 mps 753 mmHg 76%
07:00 +26°C° 0 mm 2 mps 753 mmHg 65%
08:00 +28°C° 0 mm 3 mps 753 mmHg 53%
09:00 +31°C° 0 mm 3 mps 753 mmHg 41%
10:00 +33°C° 0 mm 3 mps 753 mmHg 36%
11:00 +34°C° 0 mm 4 mps 753 mmHg 31%
12:00 +35°C° 0 mm 4 mps 752 mmHg 26%
13:00 +35°C° 0 mm 4 mps 752 mmHg 25%
14:00 +35°C° 0 mm 4 mps 752 mmHg 24%
15:00 +36°C° 0 mm 4 mps 752 mmHg 23%
16:00 +35°C° 0 mm 3 mps 752 mmHg 25%
17:00 +34°C° 0 mm 3 mps 752 mmHg 27%
18:00 +34°C° 0 mm 3 mps 752 mmHg 29%
19:00 +31°C° 0 mm 3 mps 752 mmHg 32%
20:00 +29°C° 0 mm 2 mps 752 mmHg 36%
21:00 +27°C° 0 mm 2 mps 753 mmHg 39%
22:00 +26°C° 0 mm 2 mps 753 mmHg 41%
23:00 +25°C° 0 mm 1 mps 753 mmHg 44%

2 August, Monday

Time Temperature Precipitation Wind Pressure Humidity
00:00 +24°C° 0 mm 1 mps 753 mmHg 46%
01:00 +24°C° 0 mm 1 mps 753 mmHg 47%
02:00 +24°C° 0 mm 1 mps 753 mmHg 47%
03:00 +24°C° 0 mm 1 mps 753 mmHg 48%
04:00 +25°C° 0 mm 1 mps 753 mmHg 46%
05:00 +26°C° 0 mm 1 mps 753 mmHg 43%
06:00 +28°C° 0 mm 1 mps 753 mmHg 41%
07:00 +30°C° 0 mm 2 mps 753 mmHg 36%
08:00 +32°C° 0 mm 2 mps 753 mmHg 32%
09:00 +35°C° 0 mm 2 mps 753 mmHg 27%
10:00 +36°C° 0 mm 3 mps 753 mmHg 24%
11:00 +37°C° 0 mm 3 mps 753 mmHg 22%
12:00 +38°C° 0 mm 3 mps 753 mmHg 19%
13:00 +38°C° 0 mm 3 mps 752 mmHg 19%
14:00 +38°C° 0 mm 3 mps 752 mmHg 19%
15:00 +39°C° 0 mm 2 mps 752 mmHg 19%
16:00 +37°C° 0 mm 3 mps 752 mmHg 22%
17:00 +36°C° 0 mm 4 mps 752 mmHg 26%
18:00 +35°C° 0 mm 5 mps 752 mmHg 30%
19:00 +33°C° 0 mm 4 mps 752 mmHg 33%
20:00 +30°C° 0 mm 3 mps 752 mmHg 36%
21:00 +28°C° 0 mm 2 mps 752 mmHg 39%
22:00 +28°C° 0 mm 2 mps 752 mmHg 39%
23:00 +27°C° 0 mm 1 mps 752 mmHg 39%
Show more